Location: Rounton
(54.4000°N, 1.3500°W)
Time: 06:03:17
(UTC+01:00)

Tiros 1 despin weight - Pass Details

Date: 09 March 2024
Orbit: 579 x 623 km, 48.2° (Epoch: 16 April)

Event Time Altitude Azimuth Distance (km) Brightness Sun altitude
Exits shadow 04:40:46 - 185° (S) 2,473 ? -17.2°
Reaches altitude 10° 04:43:32 10° 157° (SSE) 1,933 ? -16.8°
Maximum altitude 04:44:40 11° 142° (SE) 1,872 ? -16.6°
Drops below altitude 10° 04:45:49 10° 127° (SE) 1,928 ? -16.5°
Sets 04:49:50 0° 91° (E) 2,821 ? -15.9°
